QPF
0.10 0.06 0.03 0.03 0.03 0.02 0.01 0.01 0.00 0.00 0.01 0.00 0.00 0.00 0.00 0.01 0.01 0.01 0.02 0.04 0.04 0.06 0.08 0.08 0.08 0.07 0.07 0.07 0.07 0.08 0.07 0.08 0.08 0.07 0.06 0.06 0.06 0.05 0.04 0.04 0.04 0.03 0.03
0.11 0.10 0.08 0.08 0.08 0.06 0.04 0.02 0.01 0.01 0.01 0.01 0.01 0.01 0.01 0.01 0.02 0.02 0.03 0.04 0.04 0.05 0.06 0.07 0.08 0.09 0.09 0.09 0.08 0.07 0.07 0.08 0.09 0.08 0.07 0.06 0.06 0.06 0.06 0.05 0.05 0.05 0.04
0.10 0.11 0.13 0.12 0.12 0.12 0.09 0.06 0.05 0.04 0.03 0.02 0.02 0.02 0.02 0.02 0.03 0.04 0.04 0.03 0.03 0.04 0.04 0.05 0.07 0.08 0.09 0.10 0.12 0.13 0.10 0.08 0.08 0.07 0.06 0.07 0.07 0.07 0.07 0.07 0.06 0.07 0.06
0.12 0.15 0.18 0.16 0.16 0.17 0.17 0.15 0.12 0.10 0.07 0.05 0.04 0.04 0.04 0.04 0.04 0.05 0.05 0.06 0.05 0.04 0.05 0.06 0.06 0.06 0.07 0.08 0.10 0.11 0.09 0.08 0.08 0.08 0.08 0.08 0.08 0.08 0.07 0.06 0.05 0.05 0.05
0.16 0.17 0.17 0.18 0.20 0.23 0.25 0.25 0.22 0.16 0.12 0.09 0.09 0.09 0.08 0.08 0.06 0.06 0.06 0.06 0.05 0.04 0.04 0.03 0.04 0.05 0.07 0.07 0.08 0.09 0.08 0.07 0.06 0.06 0.06 0.06 0.07 0.06 0.05 0.04 0.04 0.04 0.04
0.21 0.22 0.21 0.21 0.22 0.24 0.25 0.27 0.27 0.24 0.19 0.18 0.15 0.12 0.12 0.11 0.09 0.07 0.07 0.06 0.05 0.05 0.04 0.03 0.04 0.04 0.05 0.05 0.06 0.06 0.06 0.05 0.05 0.05 0.06 0.06 0.06 0.05 0.04 0.04 0.04 0.04 0.04
0.28 0.28 0.27 0.27 0.26 0.24 0.26 0.28 0.33 0.33 0.28 0.24 0.18 0.12 0.09 0.08 0.09 0.08 0.07 0.06 0.05 0.05 0.05 0.04 0.04 0.04 0.04 0.04 0.03 0.03 0.03 0.04 0.06 0.07 0.06 0.05 0.03 0.03 0.03 0.03 0.03 0.03 0.04
0.32 0.33 0.31 0.31 0.34 0.33 0.32 0.30 0.31 0.34 0.32 0.27 0.21 0.16 0.09 0.07 0.06 0.06 0.05 0.05 0.05 0.04 0.04 0.04 0.04 0.03 0.03 0.02 0.02 0.01 0.01 0.03 0.04 0.07 0.07 0.04 0.03 0.02 0.02 0.02 0.03 0.03 0.03
0.23 0.26 0.28 0.29 0.32 0.33 0.32 0.31 0.30 0.31 0.30 0.29 0.24 0.20 0.12 0.06 0.04 0.04 0.04 0.03 0.03 0.03 0.02 0.02 0.02 0.02 0.02 0.01 0.01 0.01 0.02 0.02 0.03 0.04 0.04 0.02 0.02 0.02 0.02 0.03 0.03 0.03 0.03
0.21 0.24 0.26 0.27 0.29 0.31 0.32 0.31 0.30 0.29 0.31 0.31 0.29 0.22 0.16 0.09 0.05 0.04 0.04 0.03 0.02 0.02 0.02 0.01 0.01 0.01 0.01 0.01 0.01 0.01 0.01 0.01 0.01 0.02 0.02 0.02 0.02 0.02 0.02 0.02 0.02 0.02 0.02
0.20 0.24 0.22 0.21 0.22 0.23 0.25 0.27 0.27 0.28 0.28 0.28 0.28 0.24 0.19 0.14 0.09 0.06 0.05 0.05 0.03 0.02 0.02 0.02 0.01 0.01 0.01 0.01 0.01 0.01 0.01 0.01 0.01 0.01 0.01 0.01 0.01 0.01 0.01 0.01 0.02 0.02 0.02
0.14 0.18 0.23 0.22 0.20 0.21 0.22 0.21 0.22 0.23 0.26 0.27 0.26 0.23 0.19 0.16 0.14 0.12 0.10 0.07 0.05 0.05 0.04 0.03 0.02 0.02 0.02 0.03 0.02 0.02 0.01 0.01 0.00 0.00 0.00 0.00 0.00 0.00 0.00 0.01 0.01 0.01 0.01
0.12 0.15 0.16 0.19 0.18 0.18 0.22 0.23 0.22 0.21 0.23 0.26 0.28 0.25 0.21 0.18 0.15 0.14 0.12 0.10 0.08 0.08 0.06 0.04 0.03 0.02 0.02 0.03 0.02 0.02 0.01 0.01 0.01 0.00 0.00 0.00 0.00 0.00 0.00 0.00 0.00 0.00 0.01
0.10 0.14 0.11 0.12 0.15 0.15 0.15 0.15 0.16 0.17 0.19 0.20 0.20 0.20 0.19 0.18 0.18 0.17 0.14 0.12 0.12 0.10 0.07 0.05 0.04 0.03 0.02 0.02 0.02 0.02 0.01 0.01 0.00 0.00 0.00 0.00 0.01 0.00 0.00 0.00 0.00 0.00 0.01
0.07 0.09 0.09 0.09 0.10 0.11 0.12 0.11 0.11 0.11 0.13 0.17 0.18 0.17 0.15 0.14 0.14 0.13 0.12 0.11 0.09 0.08 0.06 0.03 0.02 0.01 0.01 0.01 0.01 0.01 0.00 0.00 0.00 0.00 0.00 0.00 0.00 0.00 0.00 0.00 0.00 0.00 0.01
0.06 0.07 0.07 0.09 0.09 0.08 0.08 0.09 0.08 0.07 0.09 0.12 0.14 0.15 0.13 0.11 0.10 0.09 0.07 0.05 0.04 0.03 0.03 0.01 0.01 0.01 0.01 0.01 0.01 0.00 0.00 0.00 0.00 0.00 0.00 0.00 0.00 0.00 0.00 0.00 0.00 0.00 0.01
0.05 0.07 0.07 0.07 0.07 0.07 0.07 0.06 0.06 0.05 0.05 0.07 0.09 0.10 0.10 0.09 0.06 0.04 0.04 0.03 0.03 0.02 0.02 0.01 0.01 0.01 0.01 0.00 0.00 0.00 0.00 0.00 0.00 0.00 0.00 0.00 0.00 0.00 0.00 0.00 0.00 0.00 0.00
0.06 0.06 0.05 0.05 0.05 0.06 0.06 0.05 0.04 0.03 0.03 0.04 0.05 0.05 0.05 0.04 0.02 0.02 0.01 0.01 0.01 0.01 0.01 0.01 0.01 0.01 0.00 0.00 0.00 0.00 0.00 0.00 0.00 0.00 0.00 0.00 0.00 0.00 0.00 0.00 0.00 0.00 0.00
0.06 0.05 0.04 0.04 0.04 0.03 0.03 0.03 0.03 0.03 0.02 0.02 0.02 0.02 0.02 0.01 0.01 0.00 0.00 0.00 0.00 0.00 0.00 0.01 0.01 0.01 0.00 0.00 0.00 0.00 0.00 0.00 0.00 0.00 0.00 0.00 0.00 0.00 0.00 0.00 0.00 0.00 0.00
0.04 0.04 0.04 0.04 0.03 0.03 0.02 0.01 0.01 0.01 0.01 0.01 0.01 0.00 0.00 0.00 0.00 0.00 0.00 0.00 0.00 0.00 0.00 0.00 0.00 0.00 0.00 0.00 0.00 0.00 0.00 0.00 0.00 0.00 0.00 0.00 0.00 0.00 0.00 0.00 0.00 0.00 0.00
0.02 0.02 0.02 0.02 0.02 0.01 0.01 0.01 0.00 0.00 0.00 0.00 0.00 0.00 0.00 0.00 0.00 0.00 0.00 0.00 0.00 0.00 0.00 0.00 0.00 0.00 0.00 0.00 0.00 0.00 0.00 0.00 0.00 0.00 0.00 0.00 0.00 0.00 0.00 0.00 0.00 0.00 0.00
0.02 0.02 0.01 0.01 0.01 0.01 0.00 0.00 0.00 0.00 0.00 0.00 0.00 0.00 0.00 0.00 0.00 0.00 0.00 0.00 0.00 0.00 0.00 0.00 0.00 0.00 0.00 0.00 0.00 0.00 0.00 0.00 0.00 0.00 0.00 0.00 0.01 0.00 0.00 0.00 0.00 0.00 0.00
0.03 0.02 0.01 0.01 0.00 0.00 0.00 0.00 0.00 0.00 0.00 0.00 0.00 0.00 0.00 0.00 0.00 0.00 0.00 0.00 0.00 0.00 0.00 0.00 0.00 0.00 0.00 0.00 0.00 0.00 0.00 0.00 0.00 0.00 0.00 0.00 0.00 0.00 0.00 0.00 0.00 0.00 0.00
0.02 0.02 0.01 0.01 0.00 0.00 0.00 0.00 0.00 0.00 0.00 0.00 0.00 0.00 0.00 0.00 0.00 0.00 0.00 0.00 0.00 0.00 0.00 0.00 0.00 0.00 0.00 0.00 0.00 0.00 0.00 0.00 0.00 0.00 0.00 0.00 0.00 0.00 0.01 0.00 0.00 0.00 0.00
0.02 0.02 0.02 0.01 0.00 0.00 0.00 0.00 0.00 0.00 0.00 0.00 0.00 0.00 0.00 0.00 0.00 0.00 0.00 0.00 0.00 0.00 0.00 0.00 0.00 0.00 0.00 0.00 0.00 0.00 0.00 0.00 0.00 0.00 0.00 0.00 0.00 0.01 0.01 0.00 0.00 0.00 0.00
0.02 0.02 0.01 0.01 0.00 0.00 0.00 0.00 0.00 0.00 0.00 0.00 0.00 0.00 0.00 0.00 0.00 0.00 0.00 0.00 0.00 0.00 0.00 0.00 0.00 0.00 0.00 0.00 0.00 0.00 0.00 0.00 0.01 0.01 0.00 0.01 0.01 0.01 0.01 0.00 0.00 0.00 0.00
MSLP
1015.40 1015.72 1016.00 1016.25 1016.48 1016.72 1016.99 1017.27 1017.56 1017.85 1018.10 1018.29 1018.41 1018.47 1018.48 1018.48 1018.47 1018.49 1018.56 1018.68 1018.84 1019.02 1019.21 1019.40 1019.58 1019.74 1019.90 1020.05 1020.20 1020.34 1020.48 1020.60 1020.69 1020.74 1020.76 1020.76 1020.73 1020.69 1020.67 1020.66 1020.68 1020.73 1020.80
1015.12 1015.43 1015.72 1016.00 1016.28 1016.58 1016.90 1017.25 1017.61 1017.96 1018.27 1018.51 1018.68 1018.76 1018.77 1018.75 1018.70 1018.68 1018.69 1018.76 1018.88 1019.04 1019.23 1019.44 1019.64 1019.85 1020.04 1020.22 1020.38 1020.53 1020.66 1020.77 1020.85 1020.91 1020.93 1020.93 1020.91 1020.89 1020.87 1020.86 1020.87 1020.90 1020.96
1014.88 1015.16 1015.45 1015.75 1016.07 1016.42 1016.80 1017.22 1017.65 1018.08 1018.47 1018.79 1019.02 1019.16 1019.21 1019.19 1019.13 1019.07 1019.03 1019.04 1019.11 1019.24 1019.41 1019.61 1019.83 1020.06 1020.27 1020.47 1020.65 1020.81 1020.94 1021.05 1021.13 1021.19 1021.22 1021.24 1021.24 1021.22 1021.21 1021.20 1021.21 1021.24 1021.28
1014.70 1014.96 1015.23 1015.53 1015.85 1016.23 1016.65 1017.12 1017.62 1018.12 1018.60 1019.02 1019.35 1019.57 1019.69 1019.73 1019.70 1019.64 1019.58 1019.55 1019.58 1019.66 1019.80 1019.98 1020.20 1020.42 1020.64 1020.84 1021.03 1021.19 1021.32 1021.43 1021.52 1021.58 1021.63 1021.66 1021.67 1021.68 1021.68 1021.68 1021.69 1021.70 1021.73
1014.63 1014.84 1015.07 1015.33 1015.63 1015.99 1016.41 1016.89 1017.43 1017.99 1018.55 1019.08 1019.52 1019.88 1020.12 1020.26 1020.31 1020.31 1020.27 1020.25 1020.26 1020.31 1020.42 1020.57 1020.75 1020.96 1021.16 1021.35 1021.52 1021.67 1021.80 1021.90 1021.99 1022.07 1022.12 1022.17 1022.20 1022.22 1022.23 1022.24 1022.24 1022.25 1022.26
1014.68 1014.81 1014.97 1015.16 1015.39 1015.68 1016.05 1016.50 1017.03 1017.63 1018.25 1018.88 1019.46 1019.96 1020.37 1020.67 1020.86 1020.97 1021.03 1021.06 1021.09 1021.15 1021.23 1021.35 1021.50 1021.66 1021.83 1021.99 1022.13 1022.25 1022.36 1022.46 1022.55 1022.62 1022.69 1022.75 1022.79 1022.82 1022.83 1022.83 1022.83 1022.82 1022.81
1014.83 1014.88 1014.94 1015.02 1015.14 1015.32 1015.59 1015.96 1016.44 1017.02 1017.68 1018.38 1019.09 1019.76 1020.35 1020.85 1021.24 1021.53 1021.73 1021.87 1021.98 1022.07 1022.17 1022.27 1022.38 1022.50 1022.62 1022.73 1022.83 1022.92 1023.01 1023.09 1023.16 1023.24 1023.31 1023.36 1023.41 1023.44 1023.44 1023.43 1023.41 1023.37 1023.34
1015.06 1015.03 1014.98 1014.93 1014.91 1014.96 1015.09 1015.33 1015.72 1016.24 1016.89 1017.64 1018.45 1019.26 1020.04 1020.76 1021.37 1021.87 1022.26 1022.56 1022.79 1022.96 1023.10 1023.21 1023.31 1023.40 1023.47 1023.53 1023.59 1023.64 1023.69 1023.75 1023.81 1023.88 1023.95 1024.00 1024.04 1024.06 1024.05 1024.01 1023.96 1023.89 1023.81
1015.34 1015.22 1015.07 1014.90 1014.74 1014.63 1014.61 1014.71 1014.97 1015.39 1015.99 1016.74 1017.60 1018.52 1019.46 1020.37 1021.20 1021.92 1022.52 1023.01 1023.40 1023.69 1023.90 1024.06 1024.17 1024.24 1024.28 1024.31 1024.33 1024.34 1024.37 1024.41 1024.46 1024.52 1024.59 1024.64 1024.67 1024.66 1024.63 1024.56 1024.46 1024.35 1024.23
1015.63 1015.44 1015.21 1014.94 1014.66 1014.42 1014.26 1014.21 1014.32 1014.63 1015.14 1015.83 1016.69 1017.66 1018.70 1019.75 1020.75 1021.67 1022.47 1023.15 1023.70 1024.13 1024.46 1024.69 1024.84 1024.93 1024.97 1024.98 1024.98 1024.97 1024.98 1025.02 1025.06 1025.13 1025.19 1025.24 1025.26 1025.24 1025.17 1025.07 1024.93 1024.77 1024.61
1015.88 1015.67 1015.38 1015.05 1014.70 1014.37 1014.09 1013.92 1013.90 1014.07 1014.46 1015.06 1015.86 1016.82 1017.88 1019.00 1020.11 1021.16 1022.13 1022.97 1023.69 1024.27 1024.71 1025.04 1025.26 1025.39 1025.46 1025.48 1025.48 1025.48 1025.49 1025.53 1025.58 1025.66 1025.73 1025.78 1025.80 1025.77 1025.69 1025.55 1025.37 1025.16 1024.96
1016.09 1015.88 1015.59 1015.25 1014.87 1014.49 1014.15 1013.89 1013.76 1013.82 1014.08 1014.56 1015.25 1016.12 1017.14 1018.25 1019.39 1020.52 1021.58 1022.55 1023.39 1024.10 1024.67 1025.11 1025.42 1025.62 1025.73 1025.79 1025.82 1025.83 1025.86 1025.91 1025.98 1026.08 1026.17 1026.24 1026.27 1026.24 1026.15 1025.99 1025.78 1025.54 1025.30
1016.28 1016.09 1015.83 1015.52 1015.16 1014.79 1014.43 1014.13 1013.94 1013.90 1014.04 1014.39 1014.95 1015.70 1016.61 1017.64 1018.74 1019.86 1020.96 1021.99 1022.92 1023.73 1024.41 1024.95 1025.36 1025.64 1025.82 1025.93 1025.99 1026.04 1026.09 1026.16 1026.25 1026.37 1026.49 1026.58 1026.64 1026.62 1026.54 1026.38 1026.17 1025.91 1025.64
1016.49 1016.33 1016.12 1015.85 1015.55 1015.23 1014.91 1014.62 1014.40 1014.30 1014.36 1014.58 1015.00 1015.60 1016.37 1017.27 1018.27 1019.33 1020.40 1021.44 1022.42 1023.30 1024.06 1024.68 1025.18 1025.54 1025.79 1025.95 1026.05 1026.12 1026.20 1026.29 1026.40 1026.54 1026.68 1026.80 1026.89 1026.91 1026.85 1026.71 1026.50 1026.25 1025.97
1016.75 1016.62 1016.46 1016.26 1016.03 1015.78 1015.52 1015.28 1015.08 1014.96 1014.96 1015.10 1015.40 1015.85 1016.47 1017.23 1018.10 1019.05 1020.05 1021.05 1022.02 1022.93 1023.74 1024.43 1024.99 1025.41 1025.72 1025.92 1026.06 1026.15 1026.23 1026.33 1026.45 1026.60 1026.76 1026.90 1027.02 1027.07 1027.04 1026.94 1026.76 1026.53 1026.27
1017.12 1017.01 1016.89 1016.74 1016.58 1016.40 1016.22 1016.04 1015.89 1015.80 1015.78 1015.87 1016.08 1016.43 1016.91 1017.53 1018.26 1019.09 1019.99 1020.92 1021.85 1022.74 1023.57 1024.29 1024.89 1025.35 1025.69 1025.93 1026.08 1026.17 1026.25 1026.33 1026.44 1026.58 1026.74 1026.89 1027.03 1027.11 1027.13 1027.06 1026.93 1026.73 1026.49
1017.65 1017.54 1017.43 1017.31 1017.20 1017.08 1016.97 1016.86 1016.77 1016.72 1016.73 1016.81 1016.98 1017.26 1017.65 1018.15 1018.76 1019.47 1020.25 1021.09 1021.96 1022.81 1023.61 1024.33 1024.93 1025.41 1025.77 1026.00 1026.15 1026.23 1026.28 1026.33 1026.41 1026.52 1026.65 1026.80 1026.94 1027.04 1027.08 1027.06 1026.96 1026.80 1026.60
1018.34 1018.21 1018.09 1017.98 1017.89 1017.81 1017.74 1017.69 1017.67 1017.68 1017.72 1017.83 1018.00 1018.25 1018.58 1019.00 1019.51 1020.11 1020.79 1021.53 1022.31 1023.09 1023.85 1024.53 1025.12 1025.59 1025.94 1026.16 1026.28 1026.34 1026.35 1026.36 1026.39 1026.45 1026.54 1026.66 1026.78 1026.88 1026.94 1026.93 1026.87 1026.74 1026.57
1019.16 1019.01 1018.87 1018.75 1018.65 1018.58 1018.53 1018.52 1018.55 1018.61 1018.71 1018.86 1019.05 1019.30 1019.60 1019.97 1020.41 1020.93 1021.51 1022.16 1022.84 1023.54 1024.22 1024.86 1025.41 1025.85 1026.17 1026.37 1026.47 1026.49 1026.46 1026.42 1026.39 1026.40 1026.44 1026.51 1026.59 1026.67 1026.72 1026.72 1026.66 1026.56 1026.41
1020.08 1019.92 1019.75 1019.60 1019.48 1019.39 1019.35 1019.35 1019.40 1019.51 1019.65 1019.85 1020.08 1020.34 1020.65 1020.99 1021.38 1021.82 1022.31 1022.86 1023.45 1024.05 1024.65 1025.22 1025.72 1026.12 1026.41 1026.58 1026.66 1026.65 1026.59 1026.50 1026.43 1026.38 1026.36 1026.38 1026.41 1026.45 1026.46 1026.44 1026.38 1026.27 1026.13
1021.02 1020.86 1020.68 1020.51 1020.36 1020.25 1020.19 1020.18 1020.24 1020.37 1020.55 1020.77 1021.04 1021.32 1021.63 1021.96 1022.31 1022.68 1023.10 1023.55 1024.04 1024.55 1025.06 1025.55 1025.98 1026.34 1026.60 1026.75 1026.81 1026.79 1026.71 1026.60 1026.49 1026.40 1026.33 1026.29 1026.27 1026.25 1026.21 1026.15 1026.06 1025.92 1025.77
1021.92 1021.79 1021.62 1021.44 1021.27 1021.13 1021.04 1021.02 1021.07 1021.20 1021.39 1021.63 1021.92 1022.22 1022.53 1022.84 1023.15 1023.47 1023.81 1024.17 1024.56 1024.97 1025.38 1025.79 1026.16 1026.47 1026.70 1026.85 1026.90 1026.88 1026.80 1026.69 1026.56 1026.44 1026.34 1026.25 1026.17 1026.10 1026.01 1025.89 1025.75 1025.57 1025.38
1022.72 1022.63 1022.50 1022.33 1022.16 1022.01 1021.90 1021.85 1021.88 1022.00 1022.19 1022.43 1022.72 1023.02 1023.33 1023.62 1023.89 1024.16 1024.42 1024.70 1024.99 1025.30 1025.62 1025.95 1026.25 1026.52 1026.72 1026.86 1026.92 1026.91 1026.85 1026.75 1026.63 1026.50 1026.37 1026.25 1026.13 1026.00 1025.86 1025.69 1025.49 1025.26 1025.03
1023.39 1023.36 1023.28 1023.15 1022.99 1022.84 1022.72 1022.65 1022.67 1022.76 1022.94 1023.18 1023.46 1023.76 1024.04 1024.31 1024.55 1024.76 1024.95 1025.14 1025.35 1025.56 1025.80 1026.04 1026.28 1026.50 1026.68 1026.81 1026.88 1026.89 1026.85 1026.77 1026.66 1026.54 1026.41 1026.28 1026.13 1025.96 1025.77 1025.54 1025.29 1025.02 1024.73
1023.91 1023.96 1023.93 1023.85 1023.73 1023.59 1023.48 1023.41 1023.41 1023.49 1023.65 1023.88 1024.15 1024.43 1024.70 1024.94 1025.14 1025.30 1025.43 1025.55 1025.67 1025.80 1025.95 1026.12 1026.30 1026.47 1026.62 1026.73 1026.80 1026.82 1026.80 1026.74 1026.66 1026.55 1026.43 1026.29 1026.12 1025.93 1025.71 1025.45 1025.15 1024.84 1024.51
1024.31 1024.43 1024.47 1024.44 1024.36 1024.25 1024.15 1024.09 1024.09 1024.16 1024.32 1024.53 1024.78 1025.05 1025.30 1025.51 1025.68 1025.80 1025.88 1025.93 1025.99 1026.05 1026.13 1026.23 1026.34 1026.46 1026.57 1026.66 1026.71 1026.73 1026.72 1026.68 1026.61 1026.51 1026.39 1026.25 1026.09 1025.88 1025.64 1025.36 1025.04 1024.70 1024.34
Thickness
5721 5721 5720 5719 5719 5718 5718 5717 5717 5717 5717 5717 5717 5718 5719 5719 5719 5720 5720 5720 5719 5718 5717 5716 5715 5714 5712 5711 5709 5708 5707 5706 5705 5704 5702 5701 5699 5698 5697 5696 5695 5694 5693
5719 5717 5717 5717 5716 5715 5714 5714 5714 5713 5714 5714 5714 5715 5715 5715 5715 5716 5716 5716 5716 5715 5714 5713 5712 5710 5709 5707 5707 5706 5705 5703 5702 5701 5700 5698 5697 5695 5694 5693 5692 5690 5689
5716 5714 5714 5714 5714 5713 5711 5710 5710 5709 5709 5710 5710 5710 5710 5710 5711 5711 5711 5710 5710 5709 5709 5708 5707 5706 5705 5703 5702 5702 5700 5699 5698 5697 5696 5694 5693 5691 5690 5688 5687 5685 5684
5712 5711 5712 5712 5711 5709 5708 5707 5706 5705 5705 5704 5704 5704 5704 5704 5704 5704 5704 5704 5703 5702 5702 5701 5701 5700 5699 5698 5697 5696 5695 5694 5692 5691 5690 5689 5687 5686 5684 5683 5681 5679 5678
5708 5708 5709 5708 5707 5706 5705 5704 5702 5701 5699 5698 5697 5696 5696 5696 5697 5697 5697 5696 5696 5695 5694 5693 5693 5693 5692 5691 5690 5689 5688 5686 5685 5684 5683 5682 5680 5679 5677 5675 5674 5672 5670
5704 5704 5705 5704 5704 5703 5701 5701 5698 5697 5696 5693 5691 5688 5687 5688 5688 5688 5688 5687 5687 5686 5686 5685 5684 5683 5683 5683 5682 5681 5680 5679 5677 5676 5675 5673 5672 5670 5669 5667 5665 5663 5661
5699 5699 5699 5699 5700 5699 5699 5698 5695 5692 5689 5688 5684 5679 5678 5679 5679 5679 5679 5679 5678 5677 5677 5676 5675 5674 5673 5673 5672 5671 5670 5670 5668 5667 5665 5663 5662 5660 5659 5657 5655 5653 5651
5690 5691 5694 5694 5695 5695 5694 5693 5692 5688 5685 5685 5682 5676 5670 5668 5669 5669 5670 5670 5669 5668 5668 5666 5666 5664 5663 5662 5662 5661 5660 5659 5658 5657 5655 5653 5651 5650 5648 5646 5645 5643 5641
5683 5684 5687 5688 5689 5689 5689 5690 5689 5686 5683 5681 5682 5678 5672 5668 5662 5659 5660 5660 5659 5659 5657 5656 5655 5654 5653 5652 5651 5650 5649 5648 5647 5645 5644 5642 5640 5638 5637 5635 5633 5631 5629
5674 5676 5679 5680 5681 5682 5684 5685 5685 5684 5681 5678 5677 5677 5677 5673 5664 5655 5650 5649 5649 5648 5647 5646 5645 5644 5643 5642 5640 5639 5638 5636 5635 5633 5632 5630 5628 5626 5624 5623 5621 5619 5617
5665 5668 5671 5672 5673 5675 5676 5678 5679 5679 5678 5677 5675 5673 5669 5667 5665 5658 5648 5642 5639 5637 5637 5636 5635 5633 5632 5631 5629 5628 5627 5625 5623 5621 5620 5618 5616 5614 5612 5610 5607 5605 5602
5657 5659 5663 5664 5665 5667 5669 5671 5672 5673 5673 5673 5672 5671 5668 5665 5660 5657 5649 5640 5633 5628 5627 5626 5624 5623 5622 5620 5619 5617 5616 5614 5612 5609 5608 5606 5604 5601 5599 5596 5593 5591 5588
5649 5651 5653 5654 5656 5658 5660 5663 5664 5664 5664 5665 5665 5665 5664 5662 5660 5655 5648 5636 5628 5621 5618 5616 5614 5613 5612 5610 5609 5607 5605 5603 5600 5598 5595 5593 5591 5588 5585 5582 5579 5576 5573
5640 5642 5643 5645 5647 5648 5651 5654 5654 5654 5655 5656 5656 5656 5655 5654 5653 5650 5644 5635 5624 5615 5610 5608 5605 5604 5602 5600 5598 5596 5594 5592 5589 5587 5584 5581 5578 5575 5572 5568 5565 5562 5558
5631 5633 5635 5637 5637 5639 5642 5643 5642 5643 5645 5645 5646 5646 5646 5644 5643 5641 5637 5634 5626 5614 5604 5599 5597 5594 5592 5590 5588 5586 5584 5581 5579 5576 5573 5570 5566 5563 5559 5555 5552 5548 5545
5622 5624 5625 5626 5627 5628 5630 5631 5631 5632 5634 5633 5634 5635 5634 5633 5631 5629 5626 5622 5620 5613 5601 5592 5588 5585 5583 5581 5579 5577 5574 5572 5569 5566 5563 5559 5555 5551 5548 5544 5541 5537 5533
5611 5612 5613 5615 5616 5617 5618 5620 5620 5621 5622 5622 5622 5622 5621 5621 5619 5616 5614 5611 5608 5605 5596 5584 5579 5576 5574 5572 5570 5568 5565 5562 5560 5556 5553 5549 5545 5542 5538 5534 5531 5527 5523
5599 5600 5602 5603 5604 5605 5606 5608 5608 5609 5610 5610 5610 5611 5609 5608 5606 5604 5602 5598 5595 5592 5588 5578 5570 5567 5565 5563 5560 5558 5556 5553 5550 5547 5544 5540 5536 5532 5529 5525 5521 5517 5513
5587 5589 5590 5591 5592 5593 5595 5596 5597 5598 5598 5598 5598 5598 5597 5597 5594 5592 5590 5587 5584 5580 5575 5570 5562 5557 5555 5553 5551 5548 5546 5543 5541 5538 5535 5531 5527 5524 5521 5517 5513 5509 5505
5576 5577 5578 5579 5580 5582 5584 5585 5586 5586 5586 5586 5586 5586 5585 5585 5583 5582 5579 5575 5572 5567 5562 5558 5553 5548 5545 5542 5540 5538 5536 5533 5531 5528 5525 5522 5519 5516 5513 5509 5506 5502 5499
5564 5565 5567 5568 5569 5570 5572 5573 5574 5574 5575 5574 5574 5574 5574 5574 5572 5571 5568 5564 5561 5556 5551 5548 5543 5540 5536 5534 5531 5527 5526 5523 5521 5518 5516 5514 5511 5509 5506 5503 5500 5497 5494
5552 5554 5555 5556 5557 5558 5559 5562 5563 5562 5563 5562 5562 5561 5562 5561 5560 5559 5557 5554 5551 5547 5542 5538 5534 5531 5527 5524 5521 5519 5517 5516 5515 5510 5508 5507 5504 5502 5501 5498 5496 5493 5491
5540 5541 5543 5544 5544 5545 5548 5550 5551 5551 5551 5550 5550 5550 5550 5549 5548 5547 5545 5543 5540 5537 5535 5531 5527 5524 5521 5518 5515 5512 5509 5507 5505 5502 5500 5501 5498 5497 5496 5494 5492 5490 5488
5529 5530 5531 5533 5534 5534 5537 5539 5540 5540 5539 5539 5539 5539 5539 5538 5537 5537 5535 5533 5530 5527 5525 5523 5520 5517 5514 5510 5507 5504 5501 5499 5497 5495 5493 5494 5493 5492 5491 5491 5489 5488 5486
5519 5520 5521 5523 5524 5524 5527 5529 5531 5530 5529 5528 5528 5529 5529 5528 5527 5527 5526 5524 5521 5519 5517 5515 5513 5511 5508 5505 5502 5499 5497 5496 5495 5493 5488 5488 5488 5486 5487 5487 5487 5486 5485
5510 5511 5512 5513 5515 5516 5518 5520 5521 5521 5519 5518 5518 5518 5519 5519 5519 5518 5517 5515 5513 5510 5509 5508 5506 5504 5502 5499 5497 5494 5492 5491 5490 5489 5486 5484 5484 5482 5484 5485 5484 5484 5484